Starlink 30924

operational
NORAD ID: 58412 Int'l Des: 2023-180 Owner: SPXS Country: US Constellation: starlink
LEOCIRCULAR

关于 Starlink 30924

正在加载描述...

实时位置

正在加载3D地球...

即将过境

高度历史

Altitude vs Time

uPlot chart will show altitude changes over time

两行轨道根数

1 58412U 23180L 25300.03670022 .00000965 00000-0 44594-4 0 9994
2 58412 42.9997 302.0237 0001095 272.2973 87.7753 15.27575608108895
Epoch: Oct 27, 2025 • Age: 37 hours

当前状态

高度 495.3 km
速度 7.62 km/s
星下点 -42.27°S, 32.7°W
发射日期 Nov 22, 2023
运行时间 1.9 years
类型 internet

技术详情

分类 Payload
质量 730.00 kg
干质量 700.00 kg
总质量 730.00 kg
长度 0.30 m
直径 4.10 m
跨度 29.00 m
形状 Box + pan
制造商 SPXS
平台类型 Starlink V2M
阶段状态 In Orbit
所有者/国家 SPXS/US

大型星座

Loading constellations...